Regional Weather Roundup
Issued by NWS Charleston, SC

Current Version | Previous Version | Graphics & Text | Print | Product List | Glossary On
Versions: 1 2 3 4 5 6 7 8 9 10 11 12 13 14 15 16 17 18 19 20 21 22 23 24 25 26 27 28 29 30 31 32 33 34 35 36 37 38 39 40 41 42 43 44 45 46 47 48 49 50
000
ASUS42 KCHS 171127
RWRCHS

REGIONAL WEATHER ROUNDUP
NATIONAL WEATHER SERVICE CHARLESTON SC
600 AM EST FRI NOV 17 2017

NOTE: "FAIR" INDICATES FEW OR NO CLOUDS BELOW 12,000 FEET WITH NO
SIGNIFICANT WEATHER AND/OR OBSTRUCTIONS TO VISIBILITY.

NOT ALL STATIONS ARE QUALITY CONTROLLED. USE DATA WITH CAUTION...
ESPECIALLY DEWPOINT OBSERVATIONS.

SCZ027-030-031-034>040-042>050-171200-
...SOUTHEAST SOUTH CAROLINA...

CITY           SKY/WX    TMP DP  RH WIND       PRES   REMARKS
N CHARLESTON   CLEAR     48  38  68 NE13      30.14R
WATERFRONT PRK NOT AVBL
JOHNS ISLAND   FAIR      50  39  66 N9        30.15R
PINOPOLIS        N/A     52  43  71 NE17      30.05S
MONCKS CORNER  FAIR      45  34  65 NE9       30.16R
SUMMERVILLE    FAIR      37  37 100 CALM      30.16R
BEAUFORT MCAS  CLEAR     45  44  97 NE6       30.14R
BEAUFORT ARPT  FAIR      50  46  87 NE10      30.14R
HILTON HEAD IS NOT AVBL
WALTERBORO     SUNNY     45  37  76 NE3       30.16R
ALLENDALE      FAIR      45  41  87 CALM      30.15R

...SOUTHERN MIDLANDS AND PEE DEE...

CITY           SKY/WX    TMP DP  RH WIND       PRES   REMARKS
GEORGETOWN     FAIR      43  36  75 NE6       30.17R
KINGSTREE      FAIR      41  34  75 CALM      30.17R
ORANGEBURG     CLEAR     45  36  70 NE6       30.16R
BARNWELL         N/A     39  37  93 CALM      30.16R
AIKEN          FAIR      41  36  81 NE6       30.18R
MANNING        FAIR      45  37  76 MISG      30.17R
COLUMBIA       CLEAR     36  34  92 CALM      30.16R
SUMTER         CLEAR     40  30  69 N6        30.14R WCI  36
FLORENCE       CLEAR     41  33  73 NE8       30.18R
MYRTLE BEACH   CLEAR     46  35  65 N13       30.17R
N MYRTLE BEACH CLEAR     44  36  73 N10       30.16R

$$

GAZ063-065-086>088-099>101-113>116-118-119-134>141-150-171200-
...SOUTHEAST GEORGIA...

CITY           SKY/WX    TMP DP  RH WIND       PRES   REMARKS
SAVANNAH ARPT  PTCLDY    41  41 100 CALM      30.14R
HUNTER AAF     CLEAR     43  41  93 NW3       30.10R
FORT STEWART   CLEAR     41  39  93 CALM      30.11R
STATESBORO     CLEAR     38  38 100 CALM      30.15R
SYLVANIA       SUNNY     39  39 100 CALM      30.15R
CLAXTON        FAIR      37  37  99 CALM      30.14R FOG

...CSRA...CENTRAL AND FAR SOUTHEAST GEORGIA...

CITY           SKY/WX    TMP DP  RH WIND       PRES   REMARKS
THOMSON        CLEAR     34  32  94 CALM      30.21R
AUGUSTA-BUSH   CLEAR     36  35  96 CALM      30.15R FOG
AUGUSTA-DANIEL CLEAR     51  36  56 E7        30.14R
SWAINSBORO     FAIR      36  36 100 CALM      30.15R
VIDALIA        CLEAR     43  41  93 CALM      30.14R
EASTMAN        FAIR      37  32  81 CALM      30.17R HAZE
HAZLEHURST     FAIR      45  43  94 CALM      30.13R
ALMA           CLEAR     41  40  96 CALM      30.12R FOG
WAYCROSS       CLEAR     41  39  91 CALM      30.12S FOG
JESUP          FAIR      39  37  93 CALM      30.13R
BAXLEY         FAIR      37  37 100 CALM      30.13R FOG
BRUNSWICK      FOG       39  37  93 CALM      30.13R VSB 1/2
SAINT SIMONS   CLEAR     49  46  90 N6        30.11R

$$

SCZ027-028-034-036>038-045-046-048>050-GAZ119-141-171200-
...LAKE AND SUPPLEMENTAL COASTAL OBSERVATIONS...

STATION/POSITION TIME  TEMP    WIND        PRES    WAVE   SWELL
                       AIR SEA DIR/SP/G            HT/PER HT/PER/DIR
                 (UTC) (F)     (DEG/KT/KT) (MB)    (FT/S) (FT/S/D)
WINYAH BAY       1045   49      20/  8     1021.0R
LAKE MURRAY      1030   45      CALM  /  2 1020.3S
ACE BASIN NERRS  1045   46      10/  1     1020.0S
FORT PULASKI     1100   53 62  340/  3/  4 1020.3
SAPELO ISLAND    1100   48      30/  4     1020.0

$$

ANZ835-935-AMZ111-154-330-350-352-354-370-450-454-472-171200-
...C-MAN AND BUOY OBSERVATIONS...

STATION/POSITION TIME  TEMP    WIND        PRES    WAVE   SWELL
                       AIR SEA DIR/SP/G            HT/PER HT/PER/DIR
                 (UTC) (F)     (DEG/KT/KT) (MB)    (FT/S) (FT/S/D)
BUOY 41004       1110   65 75   30/ 19/ 23 1019.1
BUOY 41008       1050   65 68   50/  8/ 10 1019.1R   2/10   2/ 90/10
FOLLY BEACH CMAN 1100   55      40/ 19/ 23 1020.9R
CAPERS NEARSHORE 1108   54 64   40/ 17/ 23 1019.9R
FRIPP NEARSHORE  1108   57 63   50/ 14/ 21 1019.0R


STATION/POSITION TIME  TEMP    WIND        PRES    WAVE   SWELL
                       AIR SEA DIR/SP/G            HT/PER HT/PER/DIR
                 (UTC) (F)     (DEG/KT/KT) (MB)    (FT/S) (FT/S/D)
5E ST. MARYS GA  1100      65                N/A     3/10   2/ 80/11
FRYING PAN BUOY  1110   61 72   20/ 19/ 25 1019.6
BUOY 41025       1110   55 65  360/ 19/ 23 1020.2
CAPE LOOKOUT NC  1100   49      10/ 16/ 20 1021.2R
BUOY 41002       1050   70 77   10/ 14/ 17 1016.4R   7/11   5/ 50/11
BUOY 41010       NOT AVBL
ST AUGUSTINE FL  1100   56 66  320/  6/  7 1019.3R


$$




USA.gov is the U.S. government's official web portal to all federal, state and local government web resources and services.